This demonstration page uses our WeatherBlox Daily Observations layout. Learn more.

Hourly Observations for June 20, 2020

Temp ( °F °C ) Dew Point ( °F °C ) Humidity (%) Winds ( mph kmh ) Pressure ( in mb ) Visibility ( mi km ) Precip ( " mm )
12:54 am 00:54 Cloudy 69 20.6 59 15 70 70 NW 3 6 30.01 1016 10 16.0934 0 0
1:54 am 01:54 Mostly Cloudy with Light Rain 68 20 60 15.6 76 76 WSW 3 6 29.99 1016 10 16.0934 0.001 0.001
2:54 am 02:54 Mostly Cloudy 66 18.9 61 16.1 84 84 N 7 11 29.96 1015 10 16.0934 0.001 0.001
3:54 am 03:54 Mostly Cloudy 65 18.3 61 16.1 87 87 NE 6 9 29.92 1013 10 16.0934 0.001 0.001
4:54 am 04:54 Clear 64 17.8 59 15 84 84 Calm 29.9 1013 10 16.0934 0 0
5:54 am 05:54 Mostly Cloudy 65 18.3 60 15.6 84 84 WNW 3 6 29.94 1014 10 16.0934 0 0
6:20 am 06:20 Cloudy 65 18.3 60 15.6 84 84 NW 5 7 29.95 1014 10 16.0934 0 0
6:54 am 06:54 Cloudy 66 18.9 61 16.1 84 84 Calm 29.96 1015 10 16.0934 0 0
7:10 am 07:10 Cloudy 66 18.9 61 16.1 84 84 Calm 29.96 1015 10 16.0934 0 0
7:45 am 07:45 Cloudy 67 19.4 60 15.6 79 79 Calm 29.96 1015 10 16.0934 0 0
7:54 am 07:54 Cloudy 67 19.4 60 15.6 79 79 NW 3 6 29.97 1015 10 16.0934 0 0
8:40 am 08:40 Cloudy 68 20 61 16.1 78 78 Calm 29.97 1015 10 16.0934 0 0
8:54 am 08:54 Cloudy 68 20 60 15.6 76 76 Calm 29.98 1015 10 16.0934 0 0
9:54 am 09:54 Partly Cloudy 72 22.2 64 17.8 76 76 SW 7 11 29.96 1015 10 16.0934 0 0
10:54 am 10:54 Partly Cloudy 76 24.4 64 17.8 67 67 SW 8 13 29.95 1014 10 16.0934 0 0
11:46 am 11:46 Mostly Cloudy 76 24.4 63 17.2 64 64 WNW 9 15 29.92 1013 10 16.0934 0 0
11:54 am 11:54 Mostly Cloudy 78 25.6 62 16.7 58 58 W 9 15 29.94 1014 10 16.0934 0 0
12:54 pm 12:54 Partly Cloudy 80 26.7 61 16.1 52 52 WNW 7 11 29.93 1013 10 16.0934 0 0
1:54 pm 13:54 Sunny 82 27.8 62 16.7 51 51 SW 10 17 29.91 1013 10 16.0934 0 0
2:54 pm 14:54 Mostly Sunny 82 27.8 62 16.7 51 51 SSW 8 13 29.9 1012 10 16.0934 0 0
3:54 pm 15:54 Partly Cloudy 84 28.9 63 17.2 49 49 WSW 8 13 29.88 1012 10 16.0934 0 0
4:54 pm 16:54 Partly Cloudy 83 28.3 63 17.2 51 51 SSW 8 13 29.86 1011 10 16.0934 0 0
5:54 pm 17:54 Mostly Sunny 83 28.3 63 17.2 51 51 SSW 9 15 29.84 1011 10 16.0934 0 0
6:54 pm 18:54 Mostly Sunny 82 27.8 62 16.7 51 51 SSW 13 20 29.83 1010 10 16.0934 0 0
7:54 pm 19:54 Sunny 80 26.7 63 17.2 56 56 SSW 9 15 29.83 1010 10 16.0934 0 0
8:54 pm 20:54 Sunny 76 24.4 64 17.8 67 67 S 5 7 29.84 1011 10 16.0934 0 0
9:54 pm 21:54 Clear 76 24.4 65 18.3 69 69 W 5 7 29.87 1011 10 16.0934 0 0
10:54 pm 22:54 Clear 74 23.3 65 18.3 74 74 Calm 29.86 1011 10 16.0934 0 0
11:54 pm 23:54 Clear 73 22.8 66 18.9 79 79 SSE 7 11 29.85 1011 10 16.0934 0 0

Powered by AerisWeather